Location: Les Coudrans
(46.1056°N, 1.1158°W)
Time: 13:31:41
(UTC+00:00)

SeaSat 1 - Pass Details

Date: 03 March 2021
Orbit: 744 x 747 km, 108.0° (Epoch: 19 April)

Event Time Altitude Azimuth Distance (km) Brightness Sun altitude
Rises 19:34:16 0° 26° (NNE) 3,201 5.6 -18.2°
Reaches altitude 10° 19:36:33 10° 24° (NNE) 2,273 4.8 -18.5°
Maximum altitude 19:41:28 71° 302° (WNW) 794 2.7 -19.4°
Drops below altitude 10° 19:46:21 10° 218° (SW) 2,260 5.3 -20.2°
Sets 19:48:37 0° 217° (SW) 3,180 6.0 -20.6°
